ONEWEB-0113

Last updated on April 25, 2021, 12:02 a.m. UTC

1 48050U 21025J   21114.58336806 -.01085326  00000-0 -49513-1 0  9995
2 48050  87.4196 339.3547 0010155 133.3324  16.5769 15.23632343  1781
UTC
Height (km)
Latitude
Longitude
Inclination
Orbital Period
UTC large
Height (km)
Speed (km/s)
/
Latitude / Longitude
Inclination (degrees)
Orbital Period (minutes)
Azimuth
Elevation
Range (km)
Doppler Factor
iOS Compass Heading
iOS Angle

Next 30 passes for location: Hong Kong

Rise time Rise Azimuth (degrees) Set time Set Azimuth (degrees) Duration Max altitude (degrees)

No matching passes for this satellites